Погода в Илларионово

Украина / Днепропетровская область     48°24′20″N   35°16′19″E
темп.,
°C
ветер,
м/с
пор.,
м/с
влажн.,
%
обл.,
%
осадки,
мм/ч
давл.,
гПа
погр.,
м
29 июня, ср
ср2900:00+21св35785 0.0 101594
03:00+19св34845 0.0 101672
06:00+20св39855 0.0 1016238
09:00+26всв576374 0.0 1016613
12:00+30всв67435 0.0 10161842
15:00+31св653845 0.0 10152492
18:00+29св554427 0.0 10151606
21:00+23св410625 0.0 1015207
30 июня, чт
чт3000:00+20в5116877 0.0 1016268
03:00+18в4106132 0.1 1016194
06:00+17в376592 0.0 1015185
09:00+23вюв335394 0.2 1015530
12:00+17всв4685100 1.3 1016223
15:00+18всв68805 1.7 1016425
18:00+19в556753 0.0 1016654
21:00+15св35810 0.0 1017119
1 июля, пт
пт100:00+14св35810 0.0 101786
03:00+13св35918 0.0 101783
06:00+14св26871 0.0 1018170
09:00+22св46550 0.0 1017804
12:00+26св46394 0.0 10172306
15:00+27ссв66331 0.0 10162580
18:00+26ссв56361 0.0 10162353
21:00+22ссв4105020 0.0 1018353
2 июля, сб
сб200:00+16св37690 0.0 1019113
03:00+15всв36730 0.0 101998
06:00+14св36760 0.0 1021161
09:00+20св46460 0.0 1021810
12:00+23св563214 0.0 10211541
15:00+25ссв35295 0.0 10201953
18:00+26с46300 0.0 10192074
21:00+20всв23530 0.0 102026
3 июля, вс
вс300:00+18ююз11560 0.0 102012
03:00+18з33570 0.0 101939
06:00+18зсз23655 0.0 101977
09:00+25сз46523 0.0 1018638
12:00+30ссз56399 0.0 10171957
15:00+31ссз5633100 0.0 10162998
18:00+31с45365 0.0 10162356
21:00+25ссв235490 0.0 101650